[[{"header":{"parameterUnit":"m.s-1","parameterCategory":1,"la1":30.2991,"la2":30.254,"lo1":-89.0895,"lo2":-89.0444,"dy":0.0017,"dx":0.0017,"nx":28,"ny":28,"refTime":"2024-05-28T03:00:00:Z","depth":0,"parameterNumber":2,"parameterNumberName":"U-component_of_WINDS"},"data":[0,0,0,0,0,0,0,0,0,0,0,0,0,0,0,0,0,0,0,0,0,0,0,0,0,0,0,0,0,0,0,0,0,0,0,0,0,0,0,0,0,0,0,0,0,0,0,0,0,0,0,0,0,0,0,0,0,0,0.6146,0.6146,0,0.6137,0.6137,0.6137,0.6091,0.609,0.6089,0.6088,0.608,0.6081,0.6082,0,0,0,0,0,0,0,0,0,0,0,0,0,0.6125,0.6126,0.6146,0.6146,0.6146,0.6137,0.6137,0.6137,0.6091,0.609,0.6089,0.6087,0.608,0.6081,0.6082,0,0,0,0,0,0,0,0,0,0,0,0,0,0.6127,0.6126,0.6146,0.6122,0.612,0.6137,0.6137,0.6137,0.6091,0.609,0.6088,0.6087,0.608,0.6081,0.6082,0.6123,0,0,0.6086,0.6087,0,0,0,0,0,0,0,0,0.6127,0.6128,0.6126,0.6124,0.6121,0.6114,0.6127,0.6133,0.6092,0.6102,0.6088,0.6086,0.6093,0.6093,0.6095,0.6123,0.6123,0.6086,0.6087,0.6088,0.6088,0,0,0,0,0,0,0,0.6127,0.6128,0.6143,0.6126,0.6123,0.6112,0.6111,0.6128,0.6107,0.6101,0.6098,0.6097,0.6091,0.6094,0.6095,0.6122,0.6086,0.6087,0.6088,0.6089,0.6185,0.6187,0,0,0,0,0,0,0.613,0.6129,0.6143,0.6142,0.612,0.6114,0.6112,0.6118,0.6107,0.6103,0.6099,0.6095,0.6093,0.6093,0.6094,0.6143,0.6088,0.6089,0.6089,0.6184,0.6186,0.6188,0,0,0,0,0,0,0.613,0.6132,0.6143,0.6135,0.6135,0.6116,0.6123,0.6118,0.6121,0.6105,0.6101,0.6105,0.6091,0.6092,0.6117,0.6142,0.6089,0.609,0.6181,0.6184,0.6187,0.624,0,0,0,0,0,0,0.613,0.6132,0.6147,0.6135,0.6136,0.6166,0.6124,0.6119,0.6123,0.6118,0.611,0.6107,0.609,0.6115,0.6118,0.6143,0.6091,0.6179,0.6183,0.6186,0.6236,0.6244,0.6251,0,0,0,0,0,0.6129,0.6162,0.6148,0.615,0.6154,0.6167,0.6168,0.6147,0.6125,0.6141,0.613,0.6107,0.6138,0.6118,0.6121,0.6146,0.6178,0.6182,0.6186,0.6233,0.6243,0.6251,0,0,0,0,0,0,0.6178,0.616,0.6144,0.6174,0.6173,0.6159,0.6178,0.6158,0.6163,0.6158,0.6133,0.6132,0.616,0.6155,0.6133,0.6186,0.6154,0.6159,0.6189,0.6198,0.6206,0.6207,0.6092,0,0,0,0,0,0.6192,0.6204,0.6188,0.6216,0.6216,0.6197,0.6202,0.6187,0.6184,0.6183,0.6175,0.6173,0.6183,0.619,0.6198,0.6235,0.6233,0.6254,0.6261,0.6268,0.6273,0.6294,0.6304,0.6201,0.6201,0.6201,0,0,0.6222,0.6213,0.6222,0.6226,0.6222,0.6236,0.6197,0.6212,0.6223,0.6185,0.6209,0.6202,0.6199,0.6231,0.6244,0.6227,0.6301,0.6273,0.6278,0.628,0.6299,0.6309,0.6318,0.6204,0.6204,0.6203,0,0,0.6283,0.6277,0.6301,0.6299,0.6294,0.6282,0.6287,0.6277,0.6272,0.6294,0.6267,0.6279,0.6296,0.6295,0.6297,0.636,0.6339,0.6363,0.6404,0.6425,0.6433,0.644,0.6464,0.6473,0.6368,0.6368,0.6368,0,0.6321,0.634,0.6316,0.6334,0.6337,0.6303,0.6328,0.6327,0.6326,0.6329,0.631,0.6332,0.6327,0.6359,0.6374,0.6376,0.6384,0.6365,0.6433,0.644,0.6447,0.647,0.6479,0.6371,0.637,0.637,0.637,0,0.6387,0.6401,0.6421,0.6421,0.6425,0.6447,0.6427,0.6435,0.6419,0.6409,0.6434,0.6427,0.6434,0.644,0.6424,0.647,0.646,0.6438,0.6405,0.646,0.6481,0.649,0.6375,0.6374,0.6373,0.6372,0,0,0.648,0.6467,0.6475,0.6475,0.6468,0.6478,0.6498,0.6505,0.6513,0.6513,0.6531,0.6546,0.6526,0.6528,0.6512,0.653,0.6583,0.6506,0.6506,0.6523,0.6636,0.6654,0.6665,0.6569,0.657,0.6571,0.6637,0,0.6541,0.6575,0.6554,0.6591,0.6605,0.6573,0.6591,0.6589,0.658,0.6591,0.6581,0.6593,0.6564,0.6566,0.6582,0.6573,0.6606,0.6568,0.6587,0.6588,0.6591,0.6675,0.6695,0.6757,0.6645,0.6646,0.6647,0,0.6616,0.662,0.6659,0.665,0.6655,0.6672,0.6677,0.6687,0.6685,0.6677,0.668,0.666,0.6681,0.6647,0.6676,0.6651,0.6657,0.6654,0.6656,0.6659,0.6622,0.6683,0.6776,0.6786,0.6659,0.6658,0.6657,0,0.6683,0.6698,0.6723,0.6724,0.6714,0.6727,0.6723,0.6719,0.6725,0.6729,0.6733,0.674,0.6744,0.6751,0.6734,0.671,0.6766,0.673,0.6762,0.6763,0.6777,0.6777,0.6875,0.6777,0.6777,0.6777,0.6777,0,0.6755,0.678,0.6753,0.677,0.6798,0.6774,0.6803,0.6796,0.6793,0.6808,0.678,0.6795,0.677,0.6783,0.677,0.6797,0.6799,0.6795,0.6791,0.6799,0.68,0.6804,0.68,0.6779,0.6779,0.6778,0.6778,0,0.6835,0.6818,0.6844,0.6832,0.683,0.6852,0.6842,0.6857,0.6846,0.6866,0.6869,0.6852,0.6866,0.6849,0.6861,0.6852,0.6891,0.6879,0.6892,0.6889,0.6923,0.6921,0.7029,0.7043,0.6934,0.6935,0.6936,0,0.6883,0.6902,0.6893,0.6901,0.6899,0.6912,0.6917,0.6895,0.6902,0.6902,0.6917,0.6928,0.6936,0.696,0.695,0.6959,0.695,0.6987,0.6951,0.6959,0.6953,0.6954,0.6957,0.6995,0.6996,0.6997,0.6998,0,0.6971,0.6961,0.697,0.6977,0.6985,0.6989,0.6991,0.6999,0.6975,0.6985,0.6999,0.7005,0.7018,0.703,0.7037,0.7034,0.7014,0.7009,0.7018,0.7027,0.7034,0.7033,0.6914,0.7008,0.7007,0.7006,0.7005,0.7005,0.7038,0.7054,0.7051,0.7062,0.7061,0.7064,0.7078,0.7069,0.7079,0.7088,0.7074,0.7092,0.709,0.7097,0.7097,0.7111,0.7095,0.7107,0.711,0.7114,0.712,0.703,0.7112,0.7112,0.7111,0.7111,0.7111,0,0.7127,0.7123,0.7133,0.7137,0.7147,0.7124,0.7126,0.7136,0.7152,0.7151,0.716,0.7177,0.7189,0.7179,0.7189,0.7203,0.7194,0.7207,0.7207,0.7207,0.7132,0.7125,0.7214,0.7214,0.7214,0.7214,0.7214,0.7214,0.7174,0.7201,0.7191,0.7218,0.7214,0.7231,0.7234,0.7237,0.7237,0.7257,0.7266,0.726,0.7256,0.7266,0.7277,0.7274,0.728,0.7297,0.7291,0.7222,0.7212,0.7202,0.7196,0.7298,0.7298,0.7365,0.7365,0.7366]},{"header":{"parameterUnit":"m.s-1","parameterCategory":1,"la1":30.2991,"la2":30.254,"lo1":-89.0895,"lo2":-89.0444,"dy":0.0017,"dx":0.0017,"nx":28,"ny":28,"refTime":"2024-05-28T03:00:00:Z","depth":0,"parameterNumber":3,"parameterNumberName":"V-component_of_WINDS"},"data":[0,0,0,0,0,0,0,0,0,0,0,0,0,0,0,0,0,0,0,0,0,0,0,0,0,0,0,0,0,0,0,0,0,0,0,0,0,0,0,0,0,0,0,0,0,0,0,0,0,0,0,0,0,0,0,0,0,0,-2.1772,-2.1774,0,-2.194,-2.1942,-2.1943,-2.199,-2.1989,-2.1988,-2.1988,-2.2158,-2.2163,-2.2168,0,0,0,0,0,0,0,0,0,0,0,0,0,-2.1491,-2.1496,-2.1772,-2.1774,-2.1776,-2.1939,-2.1942,-2.1944,-2.1991,-2.1989,-2.1988,-2.1987,-2.2156,-2.2162,-2.2169,0,0,0,0,0,0,0,0,0,0,0,0,0,-2.1631,-2.1497,-2.1771,-2.1819,-2.1825,-2.1939,-2.1942,-2.1945,-2.1991,-2.1989,-2.1988,-2.1987,-2.2154,-2.2162,-2.217,-2.2248,0,0,-2.2194,-2.2198,0,0,0,0,0,0,0,0,-2.1623,-2.1641,-2.181,-2.1816,-2.1823,-2.1943,-2.1905,-2.2046,-2.1991,-2.1928,-2.1988,-2.1986,-2.2087,-2.2101,-2.2135,-2.2256,-2.2263,-2.2195,-2.22,-2.2203,-2.2206,0,0,0,0,0,0,0,-2.1613,-2.1634,-2.1838,-2.1812,-2.182,-2.1832,-2.185,-2.1932,-2.2013,-2.1933,-2.1937,-2.1956,-2.209,-2.2127,-2.2139,-2.2266,-2.2195,-2.2202,-2.2207,-2.221,-2.246,-2.2462,0,0,0,0,0,0,-2.1595,-2.1626,-2.1833,-2.1843,-2.1717,-2.1838,-2.1858,-2.1906,-2.2012,-2.2027,-2.1957,-2.1958,-2.2114,-2.213,-2.2146,-2.2245,-2.2203,-2.2211,-2.2216,-2.2458,-2.246,-2.2462,0,0,0,0,0,0,-2.1589,-2.1613,-2.1826,-2.1736,-2.1764,-2.1844,-2.1897,-2.191,-2.1947,-2.2031,-2.2045,-2.198,-2.2114,-2.2134,-2.2222,-2.2252,-2.2215,-2.2222,-2.2456,-2.2459,-2.2461,-2.2444,0,0,0,0,0,0,-2.1581,-2.1611,-2.1642,-2.1736,-2.1768,-2.19,-2.1899,-2.1914,-2.1961,-2.1963,-2.2056,-2.207,-2.2114,-2.221,-2.223,-2.2262,-2.2228,-2.2454,-2.2457,-2.246,-2.2443,-2.2446,-2.2449,0,0,0,0,0,-2.1571,-2.163,-2.1643,-2.1668,-2.1808,-2.1902,-2.192,-2.197,-2.1963,-2.1994,-2.2049,-2.2067,-2.2245,-2.2219,-2.2242,-2.2277,-2.2452,-2.2456,-2.246,-2.2441,-2.2446,-2.2449,0,0,0,0,0,0,-2.1536,-2.1643,-2.1659,-2.175,-2.1817,-2.191,-2.1951,-2.1973,-2.2043,-2.2042,-2.21,-2.2121,-2.2205,-2.225,-2.2218,-2.2359,-2.2349,-2.2358,-2.2327,-2.2331,-2.2334,-2.2322,-2.2235,0,0,0,0,0,-2.1539,-2.1606,-2.1696,-2.1768,-2.1801,-2.187,-2.1912,-2.1945,-2.2016,-2.2045,-2.2105,-2.2173,-2.2245,-2.229,-2.236,-2.2449,-2.247,-2.2484,-2.2488,-2.249,-2.2497,-2.2548,-2.2556,-2.2475,-2.2475,-2.2475,0,0,-2.1546,-2.1613,-2.1651,-2.1763,-2.1818,-2.1887,-2.1893,-2.1965,-2.2017,-2.2055,-2.2143,-2.219,-2.2269,-2.2358,-2.2401,-2.2398,-2.2524,-2.2495,-2.2496,-2.2502,-2.2553,-2.2561,-2.2567,-2.2478,-2.2478,-2.2477,0,0,-2.1594,-2.165,-2.1717,-2.1773,-2.1857,-2.1903,-2.1919,-2.2009,-2.2042,-2.2131,-2.2162,-2.2223,-2.2345,-2.2401,-2.2445,-2.2514,-2.2534,-2.2535,-2.2552,-2.2601,-2.2608,-2.2614,-2.2639,-2.2648,-2.2542,-2.2542,-2.2542,0,-2.1591,-2.1696,-2.1748,-2.182,-2.1868,-2.1907,-2.1975,-2.2026,-2.2128,-2.2161,-2.2156,-2.231,-2.2367,-2.247,-2.2487,-2.2521,-2.2541,-2.2525,-2.2603,-2.2609,-2.2615,-2.2641,-2.265,-2.2541,-2.2541,-2.2542,-2.2542,0,-2.169,-2.1762,-2.1806,-2.1905,-2.1958,-2.2027,-2.2089,-2.2137,-2.2165,-2.2211,-2.2301,-2.237,-2.2455,-2.2482,-2.251,-2.259,-2.2586,-2.2591,-2.2583,-2.2622,-2.2647,-2.2657,-2.2541,-2.2541,-2.2541,-2.2541,0,0,-2.1721,-2.1848,-2.1863,-2.1909,-2.2005,-2.2062,-2.2133,-2.2217,-2.2257,-2.2326,-2.2387,-2.2489,-2.2495,-2.2545,-2.258,-2.2623,-2.2675,-2.2624,-2.2626,-2.2631,-2.2768,-2.2764,-2.2774,-2.2688,-2.269,-2.2692,-2.2762,0,-2.1781,-2.191,-2.1959,-2.2064,-2.2132,-2.217,-2.2232,-2.2297,-2.2342,-2.2406,-2.2456,-2.2528,-2.253,-2.2561,-2.2605,-2.2659,-2.2703,-2.2654,-2.2746,-2.2749,-2.2726,-2.2787,-2.2783,-2.2845,-2.2771,-2.2773,-2.2774,0,-2.1869,-2.1941,-2.2052,-2.2141,-2.2171,-2.2226,-2.2308,-2.2368,-2.2443,-2.2473,-2.2529,-2.2561,-2.2637,-2.2623,-2.2728,-2.2694,-2.2734,-2.2766,-2.277,-2.2781,-2.2764,-2.2801,-2.2866,-2.2876,-2.279,-2.2789,-2.2788,0,-2.1882,-2.2005,-2.2089,-2.2127,-2.2232,-2.2269,-2.2315,-2.2389,-2.2436,-2.2507,-2.2539,-2.2617,-2.266,-2.272,-2.2773,-2.2758,-2.2873,-2.2864,-2.29,-2.2899,-2.2924,-2.2922,-2.2998,-2.2948,-2.2948,-2.2947,-2.2947,0,-2.1945,-2.2012,-2.2096,-2.2148,-2.2224,-2.228,-2.2354,-2.2402,-2.2467,-2.2528,-2.2565,-2.2622,-2.2687,-2.2752,-2.2793,-2.2874,-2.2893,-2.292,-2.293,-2.2917,-2.2914,-2.2945,-2.2942,-2.295,-2.2949,-2.2949,-2.2949,0,-2.1972,-2.2031,-2.2125,-2.2217,-2.2241,-2.2294,-2.2373,-2.2424,-2.247,-2.2548,-2.2569,-2.2642,-2.2721,-2.2778,-2.2879,-2.2907,-2.2994,-2.3004,-2.2969,-2.2975,-2.3009,-2.3005,-2.3108,-2.3125,-2.3063,-2.3063,-2.3063,0,-2.2009,-2.2062,-2.216,-2.2204,-2.2249,-2.232,-2.2369,-2.2426,-2.2475,-2.2565,-2.2606,-2.2687,-2.2755,-2.2878,-2.2941,-2.3018,-2.3031,-2.3062,-2.3043,-2.3029,-2.3033,-2.3029,-2.3035,-2.3065,-2.3065,-2.3065,-2.3066,0,-2.2069,-2.2096,-2.2165,-2.2246,-2.2304,-2.2369,-2.2436,-2.2469,-2.2538,-2.2592,-2.2673,-2.2726,-2.283,-2.291,-2.2994,-2.3041,-2.3065,-2.3071,-2.3084,-2.3072,-2.305,-2.3063,-2.2978,-2.3068,-2.3068,-2.3068,-2.3068,-2.3068,-2.2103,-2.2152,-2.2229,-2.2306,-2.2362,-2.2423,-2.2476,-2.253,-2.2599,-2.2688,-2.2717,-2.2801,-2.2875,-2.2991,-2.3038,-2.3105,-2.3104,-2.3123,-2.3127,-2.3131,-2.3131,-2.3038,-2.312,-2.312,-2.312,-2.312,-2.312,0,-2.2166,-2.2217,-2.2287,-2.2379,-2.244,-2.2457,-2.2532,-2.2581,-2.2655,-2.2722,-2.2789,-2.2882,-2.296,-2.3029,-2.311,-2.315,-2.3163,-2.3169,-2.3168,-2.3178,-2.3126,-2.3108,-2.3158,-2.3158,-2.3157,-2.3157,-2.3157,-2.3157,-2.2205,-2.229,-2.2326,-2.2438,-2.2489,-2.2572,-2.2613,-2.267,-2.2724,-2.2827,-2.2893,-2.2937,-2.3005,-2.3092,-2.3164,-2.3182,-2.3211,-2.3215,-2.3235,-2.3186,-2.3182,-2.3177,-2.316,-2.322,-2.322,-2.3282,-2.3282,-2.3283]}]]